Simultaneous Nadir Overpasses (SNOs) Predictions

Prediction of SNOs between METOP-B and TERRA Satellite Orbit:

Table of predicted SNOs for the next 14.0 days since TLE Epoch: 1/23/2016
Index Date (METOP-B) Time (METOP-B) Lat,Lon (METOP-B) SZA (METOP-B ) Date (TERRA) Time (TERRA) Lat,Lon (TERRA) SZA (TERRA ) Distance(km) Time Diff (sec)
1 01/23/2016 11:49:56 -81.35,-129.46 76.74 01/23/2016 11:50:16 -81.34,-129.58 76.75 2.13 20
2 01/23/2016 12:40:36 81.35, 38.15 103.29 01/23/2016 12:39:42 81.35, 38.20 103.27 0.83 54
3 01/26/2016 07:24:17 -81.35, -63.34 77.47 01/26/2016 07:24:31 -81.34, -63.18 77.45 2.75 14
4 01/26/2016 08:14:56 81.35, 104.65 102.60 01/26/2016 08:13:57 81.35, 104.58 102.57 1.34 59
5 01/29/2016 02:58:36 -81.35, 3.53 78.15 01/29/2016 02:58:45 -81.36, 3.51 78.15 0.59 9
6 01/
